Regional Weather Roundup
Issued by NWS

Home | Current Version | Previous Version | Graphics & Text | Print | Product List | Glossary On
Versions: 1 2 3 4 5 6 7 8 9 10 11 12 13 14 15 16 17 18 19 20 21 22 23 24 25 26 27 28 29 30 31 32 33 34 35 36 37 38 39 40 41 42 43 44 45 46 47 48 49 50
306
ASUS43 KDMX 200101
RWRIA

WEATHER ROUNDUP FOR IOWA
NATIONAL WEATHER SERVICE DES MOINES IA
800 PM CDT THU APR 19 2018

NOTE: "FAIR" INDICATES FEW OR NO CLOUDS BELOW 12,000 FEET WITH NO
SIGNIFICANT WEATHER AND/OR OBSTRUCTIONS TO VISIBILITY.

* - THESE STATIONS ARE NOT NWS STATIONS...THUS NOT UNDER NWS
QUALITY CONTROL.  THEY ALSO DO NOT REPORT WEATHER SUCH
AS PRECIPITATION OR FOG.

IAZ001>003-012>014-020>022-031>034-043>046-200200-
   NORTHWEST IOWA

CITY           SKY/WX    TMP DP  RH WIND       PRES   REMARKS
CARROLL *      CLEAR     45  34  65 NE8       30.42F
CHEROKEE *     CLOUDY    34  24  68 NE5       30.43F WCI  30
DENISON *      CLEAR     46  32  57 E9        30.42S
LE MARS *      CLOUDY    39  25  56 NE10      30.42F WCI  32
ORANGE CITY *  CLOUDY    37  30  75 E6        30.43S WCI  33
SHELDON *      CLEAR     36  30  80 E8        30.41F WCI  29
SIOUX CITY     CLOUDY    43  30  60 E13       30.40S
SPENCER        CLOUDY    35  23  61 E5        30.44F WCI  31
STORM LAKE *   CLOUDY    34  25  69 NE10      30.43F WCI  26
$$

IAZ055>058-069>071-079>083-090>094-200200-
   SOUTHWEST IOWA

CITY           SKY/WX    TMP DP  RH WIND       PRES   REMARKS
ATLANTIC *     CLEAR     50  27  40 E8        30.39S
AUDUBON *      CLEAR     45  30  57 NE5       30.42S
CLARINDA *     CLEAR     54  28  37 E5        30.40S
COUNCIL BLFS * CLEAR     52  28  40 E7        30.37S
CRESTON *      CLEAR     46  25  42 E8        30.41S
HARLAN  *      CLEAR     48  30  49 E9        30.42F
LAMONI         CLEAR     50  26  39 E5        30.40R
RED OAK *      CLEAR     50  27  40 NE7       30.38S
SHENANDOAH *   CLEAR     52  27  37 E7        30.37S
$$

IAZ047>049-059>061-072>074-084-200200-
   CENTRAL IOWA

CITY           SKY/WX    TMP DP  RH WIND       PRES   REMARKS
AMES           CLEAR     44  27  51 NE9       30.45R
ANKENY *       CLEAR     45  28  53 NE7       30.45S
BOONE *        CLEAR     43  30  61 NE9       30.44R
CHARITON *     CLEAR     46  28  49 NE6       30.41S
DES MOINES     MOCLDY    50  26  39 NE7       30.43S
GRINNELL*      CLEAR     42  26  53 NE6       30.45R
KNOXVILLE *    CLEAR     48  25  40 NE5       30.42R
MARSHALLTOWN   CLEAR     41  29  62 N5        30.45R
NEWTON *       CLEAR     45  27  49 NE7       30.44S
PELLA *        CLEAR     48  24  40 NE3       30.44S
$$

IAZ004>006-015-016-023>025-035-036-200200-
   NORTH CENTRAL IOWA

CITY           SKY/WX    TMP DP  RH WIND       PRES   REMARKS
ALGONA *       CLOUDY    37  18  44 E3        30.46F
CLARION *      CLEAR     34  28  80 NE3       30.46S
ESTHERVILLE    CLOUDY    32  24  72 CALM      30.45F
FORT DODGE *   CLEAR     37  27  67 NE3       30.46S
MASON CITY     CLEAR     32  23  69 N5        30.47S WCI  27
FOREST CITY *  FAIR      36  27  69 CALM      30.46F
WEBSTER CITY * CLEAR     39  28  65 NE7       30.44S WCI  34
IOWA FALLS *   FAIR      40  28  61 N5        30.47S
$$

IAZ007>011-017>019-026>030-037>042-050>054-066-200200-
   NORTHEAST IOWA

CITY           SKY/WX    TMP DP  RH WIND       PRES   REMARKS
CEDAR RAPIDS   FAIR      44  26  49 N9        30.43S
CHARLES CITY * FAIR      37  23  56 N5        30.46S WCI  34
CLINTON *      FAIR      43  30  60 N7        30.45R
DECORAH *      FAIR      41  21  45 NW3       30.44S
DUBUQUE        FAIR      42  25  50 NW6       30.44R
MONTICELLO *   FAIR      43  27  52 CALM      30.44S
OELWEIN *      FAIR      39  32  75 N5        30.46S
WATERLOO       FAIR      39  25  57 N6        30.46R WCI  35
$$

IAZ064-065-067-068-078-200200-
   EAST CENTRAL IOWA

CITY           SKY/WX    TMP DP  RH WIND       PRES   REMARKS
DAVENPORT      FAIR      43  28  55 N8        30.46R
IOWA CITY      FAIR      48  24  39 NE12      30.45R
MT. PLEASANT * CLEAR     46  23  39 NE6       30.43R
MUSCATINE *    FAIR      45  25  45 NE8       30.44R
QUAD CITIES    FAIR      49  24  37 N7        30.43R
$$

IAZ062-063-075>077-085>089-095>099-200200-
   SOUTHEAST IOWA

CITY           SKY/WX    TMP DP  RH WIND       PRES   REMARKS
BURLINGTON     CLEAR     49  23  36 NE7       30.41S
FAIRFIELD *    CLEAR     46  23  39 N6        30.42R
FORT MADISON * CLEAR     52  25  35 CALM      30.42S
KEOKUK *       CLEAR     52  23  32 NE3       30.41R
OSKALOOSA *    FAIR      45  24  43 NE7       30.43R
CENTERVILLE *    N/A     48  27  43 CALM      30.42S
OTTUMWA        CLEAR     48  24  39 NE6       30.42R
WASHINGTON *   CLEAR     48  25  40 NE6       30.44R
$$

ABBREVIATIONS USED IN REMARKS
   TC - TEMPERATURES IN CELSIUS
  WCI - WIND CHILL INDEX
   HX - HEAT INDEX
  VSB - VISIBILITY
$$





USA.gov is the U.S. government's official web portal to all federal, state and local government web resources and services.